Regional Weather Roundup
Issued by NWS Green Bay, WI

Home | Current Version | Previous Version | Graphics & Text | Print | Product List | Glossary Off
Versions: 1 2 3 4 5 6 7 8 9 10 11 12 13 14 15 16 17 18 19 20 21 22 23 24 25 26 27 28 29 30 31 32 33 34 35 36 37 38 39 40 41 42 43 44 45 46 47 48 49 50

000
ASUS43 KGRB 191500
RWRGRB

NORTH-CENTRAL AND NORTHEAST WISCONSIN REGIONAL WEATHER ROUNDUP
NATIONAL WEATHER SERVICE GREEN BAY WI
1000 AM CDT THU OCT 19 2017

WIZ005-009-010>012-018-019-191600-
NORTH CENTRAL WISCONSIN

CITY           SKY/WX    TMP DP  RH WIND       PRES   REMARKS
IRONWOOD       CLOUDY    51  25  36 W12       30.03R
MANITOWISH WTR NOT AVBL
ARBOR VITAE    NOT AVBL
EAGLE RIVER    NOT AVBL
LAND O LAKES   NOT AVBL
RHINELANDER    MOSUNNY   50  27  40 W13       30.07R
PHILLIPS       NOT AVBL
ANTIGO         NOT AVBL
TOMAHAWK       NOT AVBL
MERRILL        NOT AVBL
$$

WIZ013-073-191600-
NORTHEAST WISCONSIN

CITY           SKY/WX    TMP DP  RH WIND       PRES   REMARKS
IRON MOUNTAIN  SUNNY     53  22  29 W12       30.01R
MARINETTE      MOSUNNY   54  28  36 W8        30.07R
$$

WIZ017-030-035>037-045-191600-
CENTRAL WISCONSIN

CITY           SKY/WX    TMP DP  RH WIND       PRES   REMARKS
MEDFORD        NOT AVBL
WAUSAU         MOSUNNY   50  33  52 S6        30.09R
MOSINEE        MOSUNNY   52  30  43 W6        30.12R
MARSHFIELD     CLOUDY    53  32  44 SW5       30.11R
WISC RAPIDS      N/A     52  33  48 SW3       30.14R
STEVENS POINT  NOT AVBL
WAUPACA        NOT AVBL
SHAWANO        NOT AVBL
CLINTONVILLE   NOT AVBL
WAUTOMA        CLOUDY    51  34  52 VRB3      30.14R
$$

WIZ038-039-048-051-191600-
FOX VALLEY

CITY           SKY/WX    TMP DP  RH WIND       PRES   REMARKS
NWS GREEN BAY  CLOUDY    55  33  43 W12       30.11R
APPLETON       MOSUNNY   52  27  37 W9        30.11R
OSHKOSH        MOSUNNY   55  33  43 W5        30.12R
FOND DU LAC    MOSUNNY   56  31  38 W6        30.14R
$$

WIZ022-050-052-191600-
EAST CENTRAL WISCONSIN

CITY           SKY/WX    TMP DP  RH WIND       PRES   REMARKS
EPHRAIM        NOT AVBL
WASHINGTON ISL NOT AVBL
STURGEON BAY   SUNNY     55  32  41 W10       30.08R
MANITOWOC      CLOUDY    56  31  38 W13       30.12R
SHEBOYGAN      PTSUNNY   56  31  38 W8        30.13R
$$

LMZ563-521-522-541>543-191600-
LAKESHORE

STATION/POSITION TIME  TEMP    WIND        PRES    VSBY  WAVE
                       AIR SEA DIR/SP/G                  HT/PER
                 (UTC) (F)     (DEG/KT/KT) (MB)    (MI)  (FT/S)
SHEBOYGAN LKSHOR 1400   53     260/ 10/ 11 1019.6R
KEWAUNEE LKSHORE 1430   53     280/  5/  8 1018.1R
NORTHPORT PIER   1440   56     260/  6/ 14 1016.9R
N MID LAKE BUOY  1350   56 58  250/ 23/ 27 1015.9R         4/ 7
S GREEN BAY BUOY 1430   52 58  250/ 16/ 19 1018.1R
SISTER BAY LKSHO 1404   58     270/ 16/ 17   N/A
MENOMINEE LKSHOR 1430   53     250/  9/ 13 1017.5S
$$




USA.gov is the U.S. government's official web portal to all federal, state and local government web resources and services.